Wind_Speed
72 71 70 70 68 66 62 62 64 56 48 49 50 52 53 53 54 55 55 56 55 55 55 56 58 59 61 62 64 65 67 68 69 71 72 73 75 77 78 79 81 82 83 84 85 86 86 87 87 87 87 87 87 87 88 89 89 90 90 90 91 91 92 94 95 95 93 94 95 95 96 98 99 99 100 101 103 104 106 107 108 108 108 108 107
72 71 70 69 67 64 60 61 61 53 48 50 52 54 55 55 56 56 57 57 57 58 58 59 61 62 64 65 67 68 70 71 73 74 75 76 78 80 82 83 84 86 87 88 89 89 90 90 90 90 90 89 89 89 90 90 92 93 94 95 96 96 96 98 100 99 98 98 99 99 100 102 103 102 102 103 105 106 107 108 109 110 110 109 108
71 70 69 67 64 61 60 61 58 51 50 52 54 56 56 57 58 58 58 59 60 61 62 63 64 65 67 68 70 72 73 75 76 77 78 79 81 83 84 86 88 89 91 92 93 93 93 93 93 92 92 92 91 91 92 93 95 97 99 100 100 101 101 102 104 104 103 103 103 103 104 105 106 106 106 106 107 107 108 109 110 111 111 110 109
69 68 66 63 59 57 57 57 55 52 53 55 56 57 58 58 59 60 61 62 64 65 66 67 68 70 71 72 74 75 76 78 79 81 82 83 84 85 87 89 91 93 95 96 97 97 96 96 95 95 95 95 95 95 95 97 98 100 103 104 105 105 105 106 107 108 108 108 107 107 107 108 109 110 110 109 109 109 109 110 111 111 111 111 110
67 66 63 59 55 54 54 54 54 55 56 57 57 59 59 60 61 62 65 66 68 69 71 72 73 75 76 77 78 79 80 82 83 85 86 87 88 89 91 92 94 96 98 99 99 98 98 98 97 97 98 99 99 100 100 102 103 105 106 107 108 109 109 109 110 111 112 112 111 110 111 111 112 112 113 112 111 110 111 111 111 111 111 111 110
66 64 60 56 53 52 52 53 55 57 58 58 59 60 62 63 64 67 69 70 72 73 74 76 77 79 80 81 82 83 85 86 87 89 90 92 93 94 95 96 97 98 99 99 99 99 99 99 100 100 101 103 104 105 106 107 108 109 110 111 111 112 113 112 113 115 116 115 114 114 114 114 114 114 114 113 112 112 111 111 111 111 110 110 110
64 61 58 54 53 52 54 55 57 58 59 60 61 63 65 66 68 71 72 74 76 77 78 79 81 82 84 85 87 88 89 90 92 93 95 96 97 98 100 100 100 99 99 99 100 100 101 102 103 105 106 108 109 109 110 111 112 112 113 114 115 115 116 116 116 118 119 118 118 117 116 116 115 114 114 114 113 112 111 111 110 110 109 108 109
62 59 56 55 55 56 57 58 60 61 62 63 65 67 69 70 72 74 76 78 80 81 82 84 85 86 88 89 90 92 94 95 96 98 99 101 101 102 103 102 101 101 100 101 102 104 105 106 108 109 111 112 113 114 114 115 116 116 117 117 117 118 118 118 118 119 119 120 120 119 117 116 116 115 114 114 112 111 111 111 109 108 107 107 107
59 57 57 57 59 60 61 62 63 65 66 68 69 71 73 74 76 79 81 83 84 85 87 89 90 92 93 94 95 97 98 100 101 102 104 104 105 105 105 104 104 103 104 104 106 108 109 111 113 114 115 116 117 117 118 118 119 119 119 119 119 119 119 119 118 119 119 119 120 119 118 116 116 115 114 113 112 110 109 110 109 106 105 105 105
58 58 58 60 61 63 64 65 67 69 70 72 74 75 77 79 81 83 85 87 89 90 91 93 96 98 99 101 101 102 103 104 105 106 107 106 106 105 106 106 106 107 108 109 110 112 113 115 116 118 119 119 120 120 120 120 120 120 120 120 120 119 119 118 117 116 116 116 117 117 116 114 113 113 112 112 110 108 107 108 108 106 103 103 104
60 60 61 62 63 65 66 68 70 73 75 76 78 79 81 83 85 87 89 91 93 94 96 98 100 102 104 106 107 107 108 108 108 108 108 107 107 107 108 110 111 112 114 115 115 116 117 118 118 119 119 120 121 121 121 121 121 121 120 120 119 119 118 116 115 113 112 112 113 112 112 110 109 108 108 108 107 105 104 105 106 105 101 101 102
62 63 64 64 66 67 69 72 74 76 78 80 81 83 84 86 88 90 92 94 96 99 100 102 104 106 107 109 111 112 112 112 111 110 110 110 110 111 113 115 117 118 119 120 120 120 120 120 120 120 119 120 120 121 121 121 121 120 119 119 118 117 116 115 113 110 109 109 109 109 108 106 104 103 103 104 103 101 100 100 102 103 101 99 100
66 67 68 69 71 73 74 76 79 81 83 84 85 87 89 91 93 94 96 98 101 103 105 106 108 110 111 112 113 114 114 114 114 114 114 115 115 116 117 119 120 122 123 123 122 121 120 120 119 119 118 118 118 117 117 118 118 118 118 118 117 116 115 113 111 109 108 107 106 106 105 102 100 99 99 100 98 97 96 96 98 100 99 98 98
70 72 73 75 77 78 80 82 84 86 88 89 90 92 94 96 97 99 101 103 105 107 109 110 111 112 113 114 114 114 115 115 116 118 120 121 121 121 122 122 123 123 123 123 122 120 118 117 117 116 115 114 113 113 113 114 115 116 116 116 116 115 114 112 109 107 105 105 104 103 101 98 95 94 95 95 95 94 93 93 95 96 96 96 96
75 77 79 81 83 84 86 88 90 92 93 94 95 97 99 101 102 104 105 107 109 110 111 112 112 113 113 114 115 117 118 119 120 122 123 125 125 125 125 125 125 124 123 123 121 120 117 116 114 113 112 111 111 111 111 112 113 114 114 114 114 113 111 109 106 104 102 101 101 99 96 93 90 89 90 90 90 90 91 91 92 92 93 94 95
81 83 85 87 89 90 92 94 95 96 98 99 100 102 104 106 107 108 109 110 111 111 112 113 114 115 116 118 120 121 122 123 124 125 125 126 126 126 125 124 124 123 121 120 119 118 116 114 114 112 111 110 110 110 111 112 112 112 111 110 110 108 106 103 100 98 96 96 97 94 91 88 87 86 86 86 86 87 88 89 90 90 91 92 93
86 88 89 91 93 95 96 98 99 101 102 104 106 107 108 109 110 110 111 112 113 114 115 117 118 120 121 123 124 125 126 126 126 125 125 124 123 122 121 120 119 118 117 116 115 115 114 113 113 112 111 110 109 110 110 111 110 109 108 107 105 103 100 97 94 92 91 91 91 90 87 85 84 84 83 83 84 84 85 86 88 89 89 90 92
90 91 93 94 96 98 100 102 104 106 107 108 109 110 111 112 112 113 114 115 117 119 120 121 123 124 125 126 127 127 127 126 125 124 122 121 119 118 117 115 114 114 113 112 112 112 112 112 112 111 110 109 108 109 109 109 108 107 105 104 102 101 98 95 93 91 89 88 87 87 85 83 83 82 81 81 82 82 83 85 86 87 88 89 91
94 95 97 99 101 104 105 107 108 109 110 110 111 112 113 115 116 118 119 121 122 123 124 124 125 126 126 125 125 125 124 123 122 120 119 118 116 115 113 112 111 110 110 109 109 109 109 109 109 109 108 107 106 106 106 107 106 104 103 101 99 98 96 93 91 90 88 86 84 84 83 82 83 81 80 79 80 80 81 83 85 86 87 88 89
99 101 103 104 105 106 107 108 109 110 111 113 114 116 118 120 121 123 124 125 126 126 126 125 125 125 124 123 122 121 121 119 118 117 116 115 113 112 111 110 109 108 107 107 107 106 106 105 105 105 105 104 103 103 103 103 102 101 99 97 95 94 92 90 88 85 84 82 80 80 81 81 81 80 78 78 78 79 80 82 83 85 86 87 88
102 103 104 105 106 107 108 110 111 113 115 117 119 121 123 124 125 126 127 127 127 127 126 126 125 124 123 122 120 119 118 117 116 115 113 112 110 109 108 107 106 106 105 105 104 103 102 101 101 101 101 101 100 101 101 100 98 97 95 93 90 88 87 85 83 81 79 77 76 76 78 79 79 77 76 76 76 77 78 80 82 83 84 85 86
102 103 104 106 108 110 111 113 115 118 120 122 123 125 126 127 128 128 129 128 127 126 125 124 123 122 121 119 118 117 115 114 113 112 111 110 108 107 106 105 104 103 102 102 101 99 98 97 97 97 97 97 98 98 98 97 95 94 91 89 86 83 82 80 79 77 75 73 73 73 76 77 75 73 73 75 75 76 77 78 80 82 83 83 84
105 106 108 110 112 114 116 118 120 122 124 125 127 128 129 130 129 129 128 127 125 123 121 120 119 118 117 116 114 113 112 111 110 109 108 107 106 105 104 103 102 100 100 99 99 97 95 94 94 94 94 94 94 95 95 94 93 91 88 85 82 79 77 76 75 74 72 71 70 71 73 73 71 70 71 73 73 74 75 77 79 80 81 81 82
110 112 114 116 118 119 121 123 125 127 128 129 130 130 130 128 127 125 123 122 120 119 118 117 115 114 113 113 112 111 110 109 108 107 106 105 104 102 101 100 99 98 97 97 97 95 93 91 91 91 91 91 91 92 91 90 89 87 85 82 79 77 75 73 72 72 70 69 68 69 69 69 68 67 69 70 71 72 74 75 77 78 78 79 80
115 118 120 122 123 125 127 129 130 130 130 129 128 127 125 123 122 120 119 118 117 116 116 114 113 113 112 111 111 110 108 107 106 105 103 102 101 99 98 97 97 96 95 95 95 93 91 88 88 88 87 87 88 88 87 86 85 83 81 79 77 75 73 71 70 69 68 67 66 66 66 66 66 66 67 68 69 71 72 73 75 76 77 78 78
121 123 125 126 128 130 131 131 130 128 126 125 123 121 120 120 119 118 117 115 115 115 114 113 112 111 111 109 108 107 105 104 102 101 100 99 98 97 95 94 94 93 93 92 92 90 88 86 84 84 84 84 84 83 82 81 80 78 77 76 74 72 71 69 68 67 66 65 64 63 63 63 63 64 65 66 67 68 70 71 73 74 75 75 75
125 127 128 129 130 130 129 127 125 123 122 121 120 119 118 117 116 116 115 114 113 112 112 110 109 107 106 105 103 102 101 100 99 99 97 96 95 94 93 92 91 90 89 89 88 88 86 84 81 80 80 81 80 79 78 76 75 74 73 72 71 70 68 66 65 64 63 62 61 60 60 60 61 63 64 64 64 65 67 69 71 72 72 72 72
128 129 129 129 127 126 124 123 121 121 120 119 119 118 116 115 113 112 111 111 110 109 107 106 104 103 102 101 100 100 99 98 97 96 95 94 93 92 90 89 88 87 86 86 86 85 84 82 80 78 78 78 77 75 74 72 72 71 70 69 68 67 66 64 62 61 60 59 58 58 58 59 60 61 62 61 62 63 65 67 68 69 69 69 70
129 127 126 125 123 122 122 120 119 118 117 116 115 114 113 112 111 110 108 108 107 106 105 104 102 101 100 100 99 99 98 97 95 94 93 92 91 90 89 87 86 85 84 84 83 83 82 80 78 76 76 75 74 72 70 69 69 68 67 66 66 64 63 62 59 58 57 56 56 56 57 57 58 58 59 59 60 62 63 65 66 67 67 68 68
125 123 122 121 121 120 119 118 116 115 113 112 112 111 110 109 108 107 107 107 107 106 105 104 103 101 99 98 97 97 96 95 94 92 91 91 90 89 88 86 84 83 82 81 80 80 79 77 75 75 74 73 72 70 67 66 66 66 65 64 63 62 60 59 57 55 55 55 55 55 55 56 56 56 57 58 59 61 62 64 65 65 66 66 66
120 120 119 118 117 117 115 114 112 111 111 110 109 108 108 107 107 106 106 106 106 106 106 105 103 101 99 96 94 93 93 93 92 91 90 89 88 87 86 84 82 81 79 78 77 76 76 75 73 72 72 71 69 68 65 63 64 64 63 62 61 60 58 56 55 54 53 53 53 53 53 53 54 55 56 57 58 60 62 63 64 65 65 65 65
118 117 116 115 114 113 111 110 109 109 109 109 108 107 107 107 106 106 106 105 105 105 104 103 102 100 97 94 92 90 90 90 89 88 87 86 85 84 83 81 79 78 77 76 74 73 72 71 70 69 69 68 67 65 62 61 62 62 62 60 59 57 56 55 54 53 52 52 52 52 51 51 52 53 54 56 58 60 62 63 63 63 63 63 64
114 113 112 111 110 109 109 108 108 108 108 108 107 107 106 106 105 105 104 104 103 102 101 100 98 96 94 91 89 87 86 86 85 84 83 82 81 80 79 77 76 75 74 73 71 70 69 67 66 66 66 65 64 62 59 60 61 60 59 58 56 55 54 53 52 52 51 50 50 50 50 50 51 52 53 55 57 59 61 61 61 61 61 62 63
110 110 109 109 108 108 108 108 108 108 108 107 107 106 105 104 104 103 102 101 100 99 97 96 95 93 91 88 86 84 82 81 81 80 79 78 77 76 75 74 72 71 71 69 68 68 66 64 64 63 62 62 60 58 57 58 59 58 56 55 54 53 53 52 51 50 49 48 48 48 48 49 50 51 53 55 57 58 59 60 60 60 61 61 62
107 107 107 108 108 108 107 106 106 106 107 107 106 105 104 103 102 100 99 98 96 95 93 92 90 89 87 85 82 80 79 78 76 75 74 74 73 72 71 70 69 68 67 66 65 64 62 61 61 60 59 58 57 56 55 56 56 55 54 54 53 51 51 51 49 48 47 46 45 46 47 48 49 51 52 54 56 57 58 59 59 59 60 61 62
106 106 106 106 106 105 104 103 103 104 105 104 104 103 102 101 100 98 96 94 92 90 89 88 86 85 83 81 79 77 76 75 73 72 70 70 69 68 68 67 66 65 64 63 62 61 59 59 58 57 56 55 54 53 53 53 53 52 52 53 52 49 49 49 47 46 45 44 44 45 46 47 49 50 51 53 55 56 57 58 58 59 60 61 62
106 105 104 103 103 102 102 101 101 102 102 101 101 100 99 98 96 94 93 91 90 88 86 84 83 81 79 78 76 75 73 72 71 69 68 67 66 65 65 64 63 63 62 61 60 58 57 56 56 54 53 53 52 51 51 51 51 50 50 51 51 48 47 47 45 43 43 43 43 44 45 47 48 49 50 52 53 54 55 56 58 60 61 62 62
103 103 102 102 102 102 101 101 100 100 99 98 98 97 97 95 94 92 91 90 88 86 83 81 79 78 76 75 74 72 71 70 69 67 66 64 63 62 62 61 60 60 60 59 57 56 55 54 53 51 51 51 50 49 49 49 49 49 49 50 49 46 44 44 43 42 42 42 43 44 45 46 47 48 49 50 51 53 54 56 58 60 61 62 62
102 102 102 102 102 102 101 101 100 100 99 98 98 97 95 94 92 91 90 88 86 84 81 79 77 76 74 73 72 71 69 68 67 66 64 62 61 60 60 59 57 57 57 57 55 54 54 52 50 49 49 49 48 47 47 48 48 48 48 48 48 45 42 41 41 42 42 42 43 44 45 46 46 47 48 49 50 51 53 56 59 61 61 61 61
101 102 102 102 102 102 101 101 101 100 99 98 97 96 94 92 91 89 88 86 84 82 79 77 76 74 73 72 70 69 68 66 64 64 62 60 59 58 58 57 55 54 55 54 52 52 52 50 48 48 47 47 46 45 46 46 46 46 46 47 46 43 41 39 40 41 42 42 43 44 45 45 45 46 47 47 49 51 54 56 59 60 61 60 60
101 101 101 101 101 102 102 102 101 100 98 97 96 95 93 91 89 87 85 84 82 80 78 76 75 74 72 71 70 68 66 64 62 61 60 58 57 56 56 55 54 53 53 51 50 50 50 49 47 46 45 45 44 44 45 45 45 44 45 45 44 41 39 38 39 41 42 42 42 43 45 44 45 45 46 46 48 50 53 56 58 59 59 58 59
100 101 100 100 100 101 102 101 100 99 97 95 94 93 91 89 87 85 83 82 80 79 77 76 75 74 72 70 69 67 65 63 61 59 57 56 55 54 54 53 52 51 51 50 48 49 49 47 46 45 44 43 43 43 44 44 43 43 43 43 41 39 37 37 38 40 42 42 42 43 44 45 45 45 45 46 47 50 53 56 57 57 56 57 58
99 99 99 99 99 100 100 100 98 96 94 93 91 90 88 86 84 82 81 80 79 78 76 75 74 73 71 70 68 66 64 61 59 57 55 54 54 53 52 51 49 50 50 48 47 48 47 46 45 44 43 43 43 42 43 43 42 41 41 41 40 37 36 37 38 40 41 42 42 42 44 44 44 44 44 45 47 50 53 55 56 55 55 56 58
98 98 98 97 98 98 98 97 96 94 93 91 89 87 85 83 81 80 79 78 78 77 75 74 72 71 70 68 66 64 62 60 57 55 54 52 52 52 51 49 48 48 48 47 46 46 46 45 44 43 42 42 42 42 41 41 40 40 39 39 38 36 36 37 38 39 41 41 42 42 43 44 43 43 43 44 47 50 53 54 54 54 55 56 57
96 96 96 96 96 96 95 95 94 93 92 91 88 85 83 81 80 78 77 77 76 75 74 72 71 69 67 66 64 62 60 58 55 53 51 50 50 51 50 48 46 46 47 46 45 45 45 45 44 43 42 41 41 40 40 39 39 38 38 38 37 36 36 37 39 39 40 42 42 43 43 43 42 42 43 45 48 52 54 54 54 54 55 55 56
95 94 94 94 94 94 93 93 93 92 91 89 86 84 81 80 78 77 76 75 74 73 72 71 69 67 66 64 62 60 58 56 53 51 49 48 48 48 48 46 45 45 45 45 44 44 44 44 43 42 40 40 39 39 39 38 38 38 37 37 36 35 36 38 39 39 41 42 42 42 41 41 41 42 45 48 50 53 53 53 53 53 52 52 52
93 92 91 91 91 91 91 91 90 89 88 85 83 82 81 79 77 76 75 74 74 72 71 69 67 66 64 63 61 59 57 55 52 49 47 46 46 46 45 44 44 43 43 43 43 43 43 43 42 41 39 38 38 38 38 37 37 37 37 36 35 35 36 37 39 40 41 41 41 41 41 42 42 44 47 49 51 52 52 51 50 49 48 48 49
91 90 90 90 90 90 89 89 87 85 84 82 81 81 80 78 77 75 74 73 72 71 70 68 66 64 63 61 60 58 56 54 52 49 45 44 45 44 42 41 43 42 41 42 42 42 42 41 41 39 38 37 37 37 37 36 36 36 36 35 35 35 36 37 38 39 40 41 41 42 42 42 44 46 48 49 50 50 51 49 47 46 46 47 49
89 89 89 89 89 88 87 86 84 82 81 80 80 80 79 78 76 74 72 71 70 70 69 67 65 63 62 61 59 57 55 53 51 49 45 42 43 44 41 38 40 41 41 41 41 41 40 40 39 38 37 37 36 36 36 35 35 35 35 35 34 35 35 37 38 39 40 41 41 41 42 43 45 47 48 49 49 50 49 48 46 44 45 47 49
88 88 89 88 88 87 85 84 83 81 80 80 80 79 79 77 75 73 71 68 67 67 67 66 64 63 61 60 58 56 54 52 50 49 46 41 40 42 42 38 37 39 39 39 40 40 39 39 38 37 37 36 36 35 35 35 35 35 35 34 34 35 35 37 38 40 40 40 41 42 43 44 46 47 48 48 48 48 48 47 45 44 44 46 49
87 87 87 86 86 85 84 83 82 81 80 79 79 78 77 75 73 71 69 67 65 64 64 63 63 61 60 58 57 56 54 52 49 47 46 43 39 39 40 39 37 37 38 38 39 39 39 38 38 37 36 36 36 35 35 34 34 34 34 34 34 35 36 37 39 40 40 41 41 42 42 43 45 46 46 47 47 47 47 46 44 43 44 47 50
Wind_Direction
297 297 297 296 295 294 294 291 289 290 285 279 281 281 280 280 280 280 280 280 281 281 282 282 282 282 282 283 283 283 283 283 283 283 284 284 285 285 284 284 283 283 282 282 282 281 281 280 280 279 278 278 277 277 277 277 277 277 277 276 276 275 275 274 273 271 270 270 269 268 267 266 263 261 259 258 256 255 255 254 254 254 253 253 252
298 297 296 295 295 293 291 288 288 287 282 279 281 281 280 280 280 281 281 281 282 282 282 282 282 282 282 282 282 283 283 283 284 284 284 285 285 285 284 284 284 284 283 283 283 282 282 281 281 280 280 279 278 278 278 278 279 279 278 278 277 277 276 276 275 273 272 271 270 269 269 268 265 263 261 260 258 256 255 254 254 253 253 253 252
297 296 295 295 293 291 287 286 286 285 281 280 281 280 280 281 281 282 282 283 283 282 282 282 282 282 282 282 282 282 283 283 284 284 284 284 284 284 285 285 285 285 286 285 285 285 284 284 283 282 281 280 280 279 279 279 279 279 279 278 278 277 277 276 275 274 273 271 270 269 268 268 267 265 263 261 259 258 256 255 254 254 253 253 252
296 295 295 294 291 287 285 285 285 283 282 282 282 281 282 282 284 284 284 284 284 283 283 283 283 283 283 283 283 283 283 284 284 284 284 284 284 285 285 286 286 287 287 287 287 286 286 285 284 283 283 282 281 280 280 279 279 279 279 278 278 277 277 276 275 274 273 271 270 269 268 267 266 265 263 261 260 259 258 256 255 254 254 253 252
297 297 296 293 290 286 284 284 284 283 284 284 284 284 284 285 285 285 284 284 284 284 285 285 285 284 285 285 285 285 285 285 285 286 286 286 286 286 286 287 287 287 287 287 287 286 285 285 284 283 283 282 282 281 281 280 280 279 279 278 278 277 277 276 275 274 273 271 269 269 267 266 265 264 264 262 261 259 258 257 256 255 254 254 253
299 297 295 292 289 286 285 284 284 285 285 285 285 286 286 286 286 285 285 285 285 285 285 286 286 286 286 286 286 286 286 287 287 287 287 287 287 287 287 287 287 287 287 287 286 286 285 285 284 284 284 283 283 282 282 281 280 280 279 278 278 277 276 275 275 274 272 270 269 268 267 265 265 264 263 263 262 260 259 258 257 256 255 254 253
297 295 293 291 289 287 286 286 286 286 286 286 286 286 286 286 286 286 286 286 286 286 286 286 286 287 287 287 287 287 287 287 287 287 287 288 288 288 288 288 288 288 287 287 287 286 286 285 285 285 285 284 284 284 283 282 281 280 279 278 277 276 275 274 273 272 271 270 269 267 266 266 265 264 263 263 262 262 260 259 258 257 255 254 253
295 294 293 292 291 290 289 289 288 287 287 287 287 287 287 287 287 287 287 286 287 287 287 287 287 287 287 287 288 288 288 288 289 289 289 289 290 290 290 289 289 288 288 287 287 287 286 286 286 286 286 285 285 284 284 282 281 280 279 277 276 274 273 272 271 271 270 269 268 267 267 266 265 265 264 263 262 262 261 260 258 257 256 254 253
294 294 293 293 292 291 291 290 289 289 289 288 288 288 288 288 288 288 288 288 288 288 289 289 289 289 289 289 288 289 289 289 290 290 290 290 290 290 290 290 289 288 288 288 287 287 287 288 287 287 287 286 285 284 283 281 280 279 277 276 274 273 272 271 270 270 269 269 268 268 267 266 266 265 264 264 263 261 261 260 259 257 255 254 253
294 294 293 293 292 292 292 291 291 290 290 290 289 290 290 290 289 289 290 290 290 290 290 290 290 290 290 290 290 290 290 290 290 290 290 290 290 290 290 289 289 289 289 288 288 288 288 288 287 287 286 286 285 284 282 281 279 278 276 275 274 273 272 271 270 270 269 269 268 267 267 266 265 264 264 263 262 261 260 260 259 257 255 254 253
293 293 293 292 291 292 292 291 291 290 290 290 290 290 290 290 290 290 290 290 290 290 290 290 290 290 290 291 291 291 292 292 291 291 291 291 291 291 291 291 290 290 290 289 289 288 288 287 287 286 285 285 284 283 282 281 279 278 277 276 275 274 273 272 271 270 270 269 268 268 267 266 265 264 263 262 261 260 259 258 258 257 255 253 251
292 291 290 290 290 290 290 289 288 288 289 289 289 289 289 289 289 289 289 289 289 289 289 289 290 290 291 291 292 292 293 293 293 292 292 292 292 291 291 291 291 291 290 289 289 288 288 287 286 286 285 284 283 283 282 281 280 279 278 277 276 275 274 274 273 272 271 270 269 268 267 266 265 264 263 262 260 259 258 257 257 256 255 252 251
291 291 291 291 290 290 289 289 290 290 290 290 290 290 290 290 289 289 289 289 289 289 290 290 291 291 292 292 292 292 293 293 293 293 292 292 292 291 291 291 290 290 289 289 288 287 287 286 285 284 284 283 282 281 281 280 279 279 278 277 276 276 275 275 274 273 273 272 270 269 268 267 265 264 262 261 260 259 257 256 255 254 253 252 250
293 293 293 293 292 292 293 292 292 292 292 292 292 291 291 290 290 290 290 290 290 290 291 291 292 292 292 292 293 293 292 292 292 292 292 292 292 292 291 291 290 290 289 289 288 287 286 285 284 283 282 282 281 280 279 279 278 278 277 277 276 276 276 276 275 274 273 273 271 270 269 267 266 264 262 261 260 258 257 255 254 253 252 251 250
295 296 295 295 295 295 295 294 293 293 293 292 292 291 291 290 290 291 291 291 292 292 292 293 293 293 293 293 293 292 292 292 292 292 292 292 292 292 292 291 291 290 290 289 288 288 287 286 284 284 283 282 281 280 279 278 277 277 277 276 276 276 276 276 275 275 274 273 272 271 269 268 266 264 261 260 258 257 256 254 253 251 250 249 248
298 298 297 297 297 296 295 294 294 293 293 292 292 292 292 292 293 293 294 294 294 294 294 294 294 293 293 293 293 293 292 292 292 292 292 292 292 291 291 291 291 290 290 289 289 288 287 286 285 284 283 282 281 280 280 278 278 277 277 277 276 276 276 276 275 274 273 272 271 270 269 268 266 263 261 258 256 255 254 253 252 250 249 248 247
298 297 297 296 295 294 294 294 294 294 294 294 295 295 295 295 296 296 296 295 295 295 294 294 294 294 294 293 293 293 293 292 292 292 291 291 291 290 290 290 290 289 289 288 288 288 287 286 285 285 284 283 282 281 280 280 279 278 278 278 278 278 277 277 276 275 273 271 270 270 268 267 265 262 259 257 254 253 252 251 250 249 248 247 246
296 295 295 294 294 294 295 295 296 296 296 297 297 297 297 296 296 296 296 295 295 295 295 294 294 294 294 294 293 293 293 292 292 292 291 291 291 290 290 289 289 288 288 287 287 287 286 286 285 284 284 283 282 282 281 280 280 280 279 279 279 279 279 278 277 276 274 272 270 269 267 265 263 260 257 255 252 251 250 249 248 247 246 246 245
296 296 296 297 297 297 297 298 298 298 297 297 297 297 297 296 296 296 296 296 296 295 295 295 294 294 294 294 293 293 293 293 292 292 291 291 290 290 289 289 288 287 287 286 286 285 285 285 284 284 283 283 282 281 280 280 280 279 279 279 279 278 278 277 276 275 273 272 269 267 266 263 261 258 255 253 251 249 248 247 246 246 245 245 244
298 298 299 299 299 298 298 298 298 298 298 298 297 297 297 297 297 297 296 296 296 296 296 296 295 295 295 294 294 294 293 293 292 292 291 291 290 290 289 288 288 287 287 286 285 285 284 284 284 283 283 282 282 281 280 279 279 279 278 278 278 277 277 276 274 273 271 270 267 265 263 261 259 256 254 251 249 248 246 245 245 245 244 244 243
298 298 299 299 299 298 298 298 298 298 297 297 297 297 297 297 297 297 297 297 297 297 297 297 296 296 295 295 294 294 293 293 292 292 291 291 290 290 289 288 288 287 286 286 285 284 284 284 283 283 282 282 281 280 280 279 279 279 278 278 278 277 276 275 274 272 270 268 266 263 261 259 257 255 253 251 248 246 245 244 244 244 243 243 243
299 299 299 299 298 298 298 298 298 297 297 298 298 298 299 299 299 299 298 298 298 298 297 297 296 296 295 295 294 294 293 293 293 292 292 291 291 290 289 289 288 288 287 286 285 285 284 284 283 283 282 282 281 281 281 280 280 280 279 279 278 277 276 275 274 272 270 268 265 262 260 258 256 254 252 250 248 246 244 243 243 243 242 242 242
300 299 299 299 298 298 299 299 299 299 299 300 300 300 300 300 299 299 298 298 298 297 297 296 296 295 295 295 294 294 294 293 293 292 292 291 291 290 290 289 289 288 288 287 286 285 285 284 283 283 282 282 282 281 281 281 281 281 280 280 279 278 277 275 274 272 270 268 265 262 260 258 256 253 251 249 247 245 243 242 242 242 242 241 241
301 300 300 300 301 301 301 301 301 301 301 301 301 300 300 299 299 298 298 298 298 297 297 297 296 296 296 295 295 295 294 294 294 293 293 292 291 291 290 290 289 288 288 287 286 285 285 284 284 283 283 282 282 281 281 281 281 281 281 281 280 279 278 276 274 272 270 267 265 262 260 258 256 253 250 248 246 244 242 241 241 241 241 241 240
302 302 302 302 303 302 302 302 301 301 301 300 300 299 299 299 299 299 298 298 298 298 298 298 297 297 297 296 296 295 295 294 294 293 292 292 291 291 290 289 289 288 288 287 286 285 285 284 284 283 282 282 281 281 281 281 281 281 281 281 281 280 278 276 273 271 269 266 264 261 259 257 255 252 250 247 245 243 241 240 240 240 239 240 240
303 303 303 303 302 302 301 301 300 300 300 300 300 300 300 300 300 300 300 300 299 299 298 298 298 297 297 296 296 295 295 294 293 293 292 292 291 291 290 289 289 288 288 287 287 286 286 285 284 283 283 282 281 281 281 281 281 282 281 281 280 279 277 275 272 270 267 265 263 261 258 256 253 251 248 246 243 242 241 240 239 238 238 239 239
302 302 302 301 301 301 300 301 301 301 301 301 301 301 301 301 300 300 300 300 299 298 298 297 297 296 296 296 296 295 295 295 294 294 293 293 292 291 291 290 289 289 288 288 288 287 287 286 285 284 283 282 282 282 282 282 282 281 280 279 278 277 275 273 270 268 266 264 261 259 257 254 252 250 248 245 243 241 240 239 238 238 238 238 237
301 301 302 301 301 302 302 302 302 303 302 302 302 302 301 301 300 300 300 299 299 298 298 298 298 298 298 298 297 297 297 296 295 295 294 294 293 292 291 291 290 290 289 289 288 288 287 287 286 285 284 283 283 283 282 282 282 280 279 278 277 275 273 271 269 267 264 262 260 258 255 253 251 249 248 245 243 241 239 239 238 237 237 237 236
302 302 302 302 303 303 303 303 303 303 302 302 302 302 301 301 301 301 301 300 300 300 300 300 299 299 299 299 299 298 298 297 296 296 295 294 293 293 292 291 291 290 290 289 289 288 288 288 287 286 285 284 284 283 282 282 281 279 278 277 275 273 271 269 268 266 264 261 259 256 254 251 249 248 246 245 242 240 238 237 237 236 235 235 234
303 303 303 303 303 303 303 303 303 303 303 302 302 302 302 302 302 303 302 302 302 302 301 301 301 301 300 299 299 298 298 297 297 296 295 294 294 293 292 292 291 290 290 289 289 288 288 288 287 286 286 285 284 283 283 282 280 278 277 275 273 271 270 268 267 265 263 261 258 255 253 250 248 246 244 243 241 239 237 236 236 235 234 233 233
303 303 303 303 302 303 303 303 303 303 303 303 303 304 304 304 304 304 303 303 303 302 302 302 302 301 301 300 300 299 298 297 296 296 295 294 293 292 292 292 291 291 290 289 288 288 287 287 287 286 285 285 284 283 282 281 279 277 275 273 272 271 269 268 267 265 263 260 257 254 252 249 246 244 242 241 240 238 237 235 234 234 233 232 232
303 303 303 303 303 303 303 304 304 304 305 305 305 305 305 305 304 304 304 303 302 302 302 302 301 301 301 301 300 299 297 296 295 295 294 293 292 292 292 291 291 291 290 289 288 287 287 286 286 285 284 283 283 282 281 279 277 275 274 272 271 270 269 268 266 264 262 259 256 252 249 246 244 242 240 239 238 237 237 235 234 233 233 232 231
303 303 303 303 303 304 305 305 306 306 306 306 306 305 305 305 305 304 304 303 303 302 302 302 301 301 301 300 299 298 297 296 295 295 294 293 293 292 292 292 291 290 289 289 288 287 286 285 284 283 282 282 281 280 279 277 275 273 272 271 270 269 268 267 265 263 260 256 253 250 247 244 242 240 238 237 236 236 236 235 234 233 232 231 230
303 304 304 305 306 306 307 308 307 307 307 306 306 306 306 306 305 305 304 304 304 303 303 302 301 301 300 300 299 298 297 296 296 295 295 294 293 293 292 292 291 290 289 288 287 286 285 284 283 282 281 280 279 278 276 274 273 272 271 271 270 268 267 265 263 260 257 254 251 247 244 242 240 238 237 236 235 235 235 235 234 232 231 231 230
305 306 306 307 307 308 308 307 307 307 306 306 306 306 306 306 306 305 305 305 304 303 303 302 302 301 301 301 300 299 298 297 296 296 295 294 294 293 292 291 290 289 288 287 286 285 284 283 281 280 279 278 277 276 274 272 271 271 270 270 269 267 265 264 261 258 255 252 248 245 242 240 238 237 236 235 235 234 233 233 233 232 230 230 229
307 307 307 307 307 307 307 307 306 306 305 305 306 306 306 306 306 306 305 305 304 304 303 303 302 302 301 301 301 300 299 298 297 296 296 295 294 293 292 291 289 289 288 287 285 285 284 282 280 280 279 277 276 275 273 271 271 270 270 269 268 266 263 262 259 256 253 250 246 243 240 238 237 236 235 234 234 233 232 231 231 231 230 229 228
307 307 307 306 306 306 307 306 306 306 306 306 306 307 307 307 307 307 307 306 305 305 304 304 303 303 302 302 301 301 300 299 298 297 296 295 294 293 291 290 289 288 288 287 286 285 283 281 280 280 278 277 275 274 272 271 270 270 269 268 266 264 261 260 258 254 251 248 244 241 238 236 236 235 234 234 233 232 231 230 230 230 229 228 227
306 306 307 307 307 307 307 307 307 307 307 308 308 308 308 308 308 308 308 307 306 306 305 305 304 304 303 303 302 301 300 300 299 298 297 296 295 293 291 289 289 288 288 287 286 285 283 281 280 279 278 276 275 273 272 271 270 269 267 266 265 262 259 257 256 253 249 246 243 239 237 235 234 234 233 233 232 231 230 229 229 229 228 227 226
307 308 308 308 308 308 308 308 309 309 310 310 310 310 310 310 310 310 309 308 308 307 307 306 305 305 304 303 302 302 301 300 299 298 297 296 295 293 291 290 289 288 287 287 286 285 283 281 281 279 278 276 275 273 272 271 269 268 265 264 262 259 256 254 253 251 247 245 242 239 236 234 233 232 231 231 230 230 229 228 229 229 228 227 226
308 309 309 309 310 310 310 310 310 311 312 312 312 311 311 311 311 311 310 309 309 308 308 307 306 306 305 304 303 302 301 300 299 298 297 296 295 293 292 290 289 288 287 287 286 284 282 282 281 279 278 277 275 273 272 270 268 266 264 262 260 257 254 251 250 249 246 243 241 239 237 234 232 231 230 229 228 228 228 228 228 228 227 226 225
309 310 310 311 311 311 311 311 312 312 313 312 312 312 312 312 312 311 311 310 310 309 309 308 308 307 306 305 304 303 302 301 300 299 298 296 295 293 292 291 290 289 287 287 286 284 283 282 281 279 278 277 275 273 271 269 267 264 262 260 258 256 253 249 247 246 245 242 239 238 237 235 232 230 229 227 227 226 226 227 227 227 226 225 224
311 311 312 312 312 312 312 312 312 313 313 312 312 312 312 312 313 312 312 312 311 311 310 310 309 309 308 307 306 305 304 303 302 300 299 297 295 293 292 291 290 289 287 287 286 284 283 282 281 280 279 277 275 273 270 268 266 263 260 258 256 254 251 248 244 243 243 242 239 238 237 235 232 230 228 226 225 225 225 226 226 226 225 224 224
312 312 312 313 312 312 312 312 312 313 312 312 312 313 313 314 314 314 313 313 312 312 311 311 310 310 309 308 307 306 305 304 303 302 300 298 296 294 292 291 290 289 288 287 286 284 283 282 281 280 278 276 274 272 269 267 264 261 258 256 254 251 249 247 243 241 241 240 238 236 236 235 232 230 228 226 225 224 225 225 225 224 224 223 223
312 312 313 312 312 312 312 312 313 313 313 313 314 314 315 315 315 314 314 313 313 312 312 311 311 310 309 308 307 306 306 305 304 303 301 299 296 294 293 292 291 289 288 287 286 284 283 282 280 278 276 275 273 271 268 266 263 260 257 255 252 250 247 246 243 240 239 238 237 236 234 233 231 229 227 225 224 224 224 224 223 223 222 222 223
312 313 313 313 312 312 313 313 314 314 314 315 316 316 316 316 316 315 315 314 313 312 312 311 311 310 309 308 307 307 306 305 304 303 301 299 297 294 293 292 291 289 287 287 285 284 282 281 279 277 275 273 272 270 268 265 262 259 256 253 251 249 246 244 241 239 237 236 236 234 233 232 230 228 226 224 224 224 224 223 222 221 221 221 222
313 313 313 313 313 314 314 315 315 316 316 317 317 317 317 316 316 316 315 315 314 313 312 312 311 310 309 308 307 307 306 305 304 302 301 298 296 294 293 291 289 287 286 285 284 282 280 279 277 275 274 272 271 269 268 265 261 258 254 252 250 247 245 243 240 238 236 235 235 234 232 231 228 226 224 224 224 225 225 224 223 222 222 222 222
314 314 314 314 314 315 315 316 316 316 317 317 317 317 317 317 317 317 316 316 315 314 313 312 311 311 310 309 308 307 307 306 305 303 302 299 295 293 292 291 288 286 284 283 281 279 278 277 275 274 273 271 270 269 267 264 261 257 254 251 249 246 244 242 239 237 235 235 234 233 231 228 226 224 224 224 225 227 227 226 224 224 223 222 222
315 315 315 315 315 316 316 316 316 317 318 318 318 317 317 317 318 318 318 317 315 314 313 313 312 311 310 309 308 308 307 306 305 304 302 300 296 293 292 290 288 286 283 281 279 278 276 276 274 273 272 271 269 267 266 264 261 258 255 251 248 246 244 241 238 236 234 234 233 231 230 227 225 224 225 225 226 227 227 227 224 223 222 222 222
315 315 316 316 317 317 317 317 317 318 319 319 319 318 318 318 319 318 318 317 316 315 314 313 313 312 311 310 309 308 307 306 305 304 303 301 297 295 293 290 287 285 283 280 278 277 275 274 273 272 271 269 268 266 265 263 261 257 254 251 248 246 244 240 238 235 234 233 232 231 229 227 226 225 225 225 225 226 227 226 223 221 221 221 222
316 317 317 318 318 318 318 318 319 320 320 320 320 319 319 319 319 318 318 317 316 315 314 314 313 312 312 310 309 309 308 307 306 305 303 301 298 295 294 291 286 284 282 280 277 276 274 273 272 271 269 268 267 265 263 262 259 256 253 251 248 246 243 240 237 235 233 232 231 230 228 227 226 226 225 225 225 226 226 226 223 220 219 221 222
317 318 318 319 319 319 320 320 321 321 321 321 320 319 319 319 319 318 318 317 317 316 315 314 313 312 312 311 309 309 308 307 306 305 304 302 300 296 293 291 288 284 282 280 277 275 274 272 271 270 268 266 265 263 262 260 258 255 252 250 248 246 244 241 239 236 234 233 232 231 229 228 227 227 227 226 226 226 226 225 223 219 217 219 221
Height
10521 10518 10514 10509 10505 10501 10498 10495 10492 10491 10491 10488 10486 10484 10482 10480 10479 10478 10476 10475 10474 10473 10471 10469 10467 10464 10462 10459 10457 10454 10452 10450 10448 10446 10444 10442 10439 10436 10434 10431 10429 10426 10424 10422 10420 10418 10416 10414 10412 10410 10409 10408 10407 10405 10402 10399 10396 10394 10393 10393 10392 10391 10389 10385 10382 10383 10385 10385 10382 10381 10381 10377 10376 10378 10380 10380 10380 10379 10380 10381 10383 10385 10386 10388 10392
10513 10509 10505 10500 10496 10493 10490 10487 10485 10483 10483 10481 10479 10476 10474 10473 10471 10470 10469 10468 10466 10464 10463 10460 10458 10455 10453 10450 10447 10445 10442 10440 10439 10436 10435 10432 10428 10425 10422 10419 10416 10413 10410 10408 10406 10404 10401 10400 10397 10395 10393 10392 10392 10390 10387 10384 10381 10377 10376 10376 10374 10374 10373 10369 10364 10364 10367 10367 10365 10366 10364 10358 10358 10361 10362 10361 10361 10362 10364 10365 10367 10368 10369 10372 10376
10505 10500 10496 10492 10488 10485 10482 10479 10478 10476 10475 10474 10471 10468 10467 10465 10464 10463 10462 10459 10457 10455 10453 10450 10448 10445 10443 10440 10438 10436 10433 10430 10428 10426 10424 10422 10418 10414 10410 10406 10403 10399 10395 10392 10390 10387 10385 10383 10381 10379 10377 10375 10375 10374 10372 10369 10365 10361 10358 10357 10356 10356 10356 10352 10347 10345 10347 10348 10347 10349 10347 10342 10341 10341 10342 10343 10343 10345 10347 10347 10348 10350 10352 10355 10359
10496 10491 10487 10483 10479 10477 10474 10472 10471 10469 10467 10466 10463 10461 10459 10458 10457 10455 10452 10449 10446 10444 10442 10440 10437 10434 10432 10430 10427 10425 10422 10419 10417 10414 10411 10409 10406 10403 10399 10394 10390 10385 10381 10377 10374 10371 10369 10366 10364 10361 10359 10357 10356 10356 10355 10352 10349 10346 10341 10339 10338 10338 10337 10334 10330 10327 10327 10326 10327 10330 10329 10325 10324 10321 10321 10325 10326 10327 10328 10329 10331 10332 10334 10337 10341
10486 10481 10477 10474 10471 10469 10467 10465 10463 10461 10459 10458 10455 10453 10451 10450 10448 10445 10442 10438 10436 10433 10430 10428 10425 10422 10420 10417 10415 10413 10410 10407 10404 10401 10397 10394 10392 10389 10386 10382 10378 10373 10368 10363 10360 10357 10354 10351 10348 10345 10342 10339 10338 10338 10337 10334 10331 10328 10324 10320 10319 10318 10316 10315 10313 10308 10304 10305 10307 10309 10307 10305 10306 10303 10301 10305 10308 10309 10310 10311 10313 10314 10316 10319 10323
10476 10471 10468 10466 10464 10462 10461 10459 10456 10454 10452 10450 10448 10445 10443 10440 10437 10434 10430 10427 10425 10422 10419 10416 10413 10410 10407 10404 10401 10399 10396 10392 10389 10387 10383 10379 10377 10373 10370 10367 10363 10359 10354 10349 10345 10341 10338 10334 10331 10328 10326 10322 10320 10319 10318 10315 10311 10308 10304 10301 10300 10297 10295 10296 10295 10287 10281 10284 10286 10286 10284 10284 10286 10286 10285 10286 10287 10289 10291 10293 10293 10295 10299 10302 10304
10466 10462 10461 10459 10458 10455 10453 10451 10449 10447 10444 10442 10439 10436 10433 10430 10426 10423 10419 10415 10412 10410 10407 10404 10401 10398 10394 10391 10388 10385 10383 10379 10375 10372 10369 10365 10362 10358 10353 10350 10347 10343 10339 10334 10329 10325 10321 10318 10314 10311 10308 10304 10301 10299 10297 10293 10290 10288 10284 10281 10279 10276 10273 10274 10274 10267 10261 10263 10263 10262 10264 10265 10265 10267 10267 10268 10269 10271 10272 10273 10275 10276 10281 10285 10286
10457 10455 10454 10452 10450 10447 10445 10443 10440 10438 10436 10433 10430 10426 10423 10420 10416 10412 10408 10404 10401 10398 10395 10391 10388 10385 10381 10378 10375 10370 10366 10364 10360 10356 10352 10348 10345 10341 10336 10333 10330 10326 10323 10319 10314 10309 10304 10301 10297 10293 10289 10285 10281 10278 10275 10271 10268 10266 10262 10259 10257 10255 10252 10251 10251 10247 10242 10241 10240 10240 10244 10245 10244 10246 10248 10248 10251 10254 10252 10252 10256 10259 10262 10265 10267
10450 10448 10447 10445 10441 10438 10436 10434 10432 10429 10426 10422 10419 10415 10412 10408 10404 10400 10395 10392 10388 10385 10381 10376 10372 10368 10365 10362 10361 10356 10351 10348 10344 10340 10335 10332 10329 10324 10319 10316 10312 10309 10306 10302 10298 10292 10287 10283 10278 10274 10269 10265 10261 10257 10253 10248 10245 10242 10238 10236 10233 10232 10230 10229 10229 10227 10223 10222 10220 10219 10222 10225 10225 10226 10227 10228 10231 10235 10235 10232 10234 10239 10244 10246 10247
10444 10442 10440 10437 10433 10430 10427 10425 10422 10418 10415 10411 10407 10404 10400 10397 10392 10387 10382 10378 10374 10370 10366 10362 10356 10352 10348 10344 10342 10340 10336 10332 10328 10324 10319 10315 10313 10308 10302 10298 10294 10290 10287 10284 10280 10275 10270 10266 10260 10255 10249 10244 10239 10234 10230 10225 10221 10217 10214 10212 10210 10208 10207 10206 10207 10207 10204 10202 10201 10199 10201 10204 10205 10206 10207 10208 10210 10215 10219 10215 10212 10218 10226 10228 10228
10439 10435 10432 10429 10425 10422 10419 10416 10412 10408 10404 10400 10397 10394 10390 10385 10380 10376 10371 10366 10361 10356 10353 10349 10344 10338 10334 10329 10325 10321 10317 10314 10311 10306 10301 10297 10295 10290 10284 10279 10274 10270 10266 10263 10259 10255 10251 10247 10241 10235 10229 10223 10216 10210 10206 10201 10197 10193 10190 10188 10186 10184 10183 10183 10184 10186 10185 10183 10181 10179 10180 10182 10185 10188 10188 10187 10190 10195 10199 10199 10195 10196 10206 10210 10210
10433 10429 10425 10422 10419 10416 10412 10408 10404 10399 10395 10391 10388 10384 10380 10374 10369 10365 10360 10354 10349 10344 10339 10335 10330 10325 10319 10314 10308 10303 10298 10294 10290 10287 10283 10279 10277 10272 10266 10260 10255 10249 10244 10241 10237 10233 10230 10225 10219 10214 10209 10203 10196 10189 10184 10178 10173 10170 10167 10165 10163 10161 10160 10160 10162 10164 10163 10162 10161 10159 10159 10162 10165 10169 10168 10166 10171 10176 10179 10182 10179 10177 10184 10190 10192
10424 10420 10417 10414 10410 10406 10402 10398 10393 10388 10383 10379 10376 10372 10367 10361 10356 10352 10347 10341 10335 10330 10324 10320 10315 10309 10303 10297 10292 10286 10281 10276 10271 10267 10263 10259 10257 10254 10249 10243 10236 10230 10223 10218 10214 10211 10208 10203 10197 10192 10188 10183 10177 10171 10165 10159 10153 10148 10146 10143 10141 10139 10138 10138 10141 10143 10142 10140 10141 10139 10139 10142 10146 10148 10148 10148 10152 10156 10160 10163 10161 10159 10166 10171 10174
10415 10411 10407 10402 10398 10394 10389 10384 10379 10374 10370 10366 10362 10358 10352 10347 10342 10337 10332 10326 10320 10315 10309 10304 10299 10293 10287 10281 10275 10269 10265 10260 10254 10248 10243 10238 10234 10232 10228 10222 10216 10209 10202 10195 10189 10186 10184 10179 10174 10170 10166 10161 10157 10153 10147 10141 10134 10129 10126 10124 10121 10119 10118 10118 10120 10122 10121 10120 10119 10118 10119 10122 10126 10127 10129 10131 10134 10136 10140 10143 10142 10143 10149 10153 10155
10404 10399 10394 10389 10385 10381 10376 10370 10366 10361 10357 10353 10348 10342 10337 10331 10327 10322 10317 10311 10305 10299 10293 10287 10282 10276 10270 10263 10257 10252 10247 10242 10237 10231 10224 10219 10213 10209 10204 10199 10192 10186 10179 10172 10165 10161 10158 10154 10150 10146 10143 10140 10136 10132 10126 10121 10115 10111 10109 10106 10103 10100 10098 10099 10101 10101 10102 10101 10098 10098 10100 10102 10106 10108 10109 10112 10115 10118 10121 10123 10124 10127 10131 10135 10137
10391 10386 10381 10377 10372 10366 10361 10356 10352 10347 10342 10337 10332 10326 10320 10315 10310 10305 10299 10293 10287 10282 10276 10270 10264 10258 10252 10245 10239 10233 10227 10222 10218 10212 10206 10199 10194 10188 10182 10177 10170 10164 10158 10151 10144 10139 10134 10131 10126 10123 10121 10118 10115 10110 10105 10100 10095 10093 10092 10089 10085 10083 10080 10082 10083 10082 10083 10082 10079 10079 10082 10085 10087 10088 10090 10094 10097 10100 10103 10104 10107 10110 10113 10117 10121
10379 10375 10370 10365 10359 10352 10347 10342 10337 10332 10326 10321 10314 10308 10301 10296 10291 10287 10281 10275 10268 10263 10257 10251 10245 10239 10233 10225 10218 10212 10206 10200 10195 10190 10184 10178 10173 10167 10162 10157 10151 10143 10138 10132 10126 10119 10115 10110 10105 10102 10100 10097 10093 10088 10083 10078 10075 10074 10073 10070 10068 10065 10063 10065 10065 10064 10064 10064 10063 10063 10065 10067 10068 10069 10073 10077 10079 10083 10086 10088 10090 10093 10096 10101 10104
10369 10364 10358 10352 10346 10339 10334 10328 10321 10315 10309 10303 10297 10291 10284 10278 10273 10268 10264 10258 10251 10245 10239 10232 10225 10218 10213 10205 10197 10190 10183 10177 10171 10166 10161 10156 10151 10146 10141 10137 10131 10125 10119 10114 10108 10102 10097 10091 10086 10083 10080 10077 10073 10068 10062 10058 10055 10055 10053 10051 10050 10047 10046 10048 10046 10045 10045 10045 10046 10047 10047 10050 10050 10051 10055 10059 10062 10066 10070 10072 10074 10076 10080 10084 10087
10356 10350 10344 10338 10331 10325 10318 10312 10305 10299 10292 10286 10280 10274 10268 10261 10255 10249 10243 10237 10230 10224 10218 10213 10205 10197 10191 10184 10176 10169 10162 10156 10150 10144 10139 10134 10130 10125 10121 10116 10111 10106 10100 10096 10090 10085 10080 10074 10069 10064 10060 10057 10053 10048 10043 10039 10038 10037 10035 10034 10033 10030 10030 10031 10029 10028 10028 10028 10030 10030 10030 10032 10032 10034 10039 10043 10046 10050 10053 10056 10059 10061 10065 10069 10071
10341 10334 10329 10323 10317 10310 10303 10298 10291 10284 10277 10269 10263 10257 10250 10243 10237 10230 10223 10216 10209 10202 10196 10190 10183 10175 10168 10161 10155 10148 10141 10135 10130 10124 10119 10114 10109 10104 10100 10095 10090 10086 10081 10076 10071 10066 10062 10057 10052 10046 10042 10038 10034 10029 10025 10022 10021 10020 10019 10018 10017 10015 10014 10014 10013 10013 10013 10012 10013 10013 10013 10014 10015 10019 10024 10027 10031 10034 10037 10041 10044 10047 10050 10053 10057
10328 10322 10317 10311 10303 10297 10290 10284 10277 10269 10261 10253 10246 10239 10232 10225 10218 10210 10202 10195 10189 10182 10174 10167 10160 10152 10145 10139 10133 10127 10120 10115 10109 10103 10097 10093 10089 10084 10078 10074 10070 10066 10061 10056 10052 10048 10044 10040 10035 10029 10024 10020 10015 10011 10007 10005 10004 10003 10002 10002 10002 10000 9999 9997 9996 9997 9996 9995 9996 9996 9996 9997 10000 10005 10009 10012 10016 10019 10023 10026 10029 10032 10035 10039 10042
10318 10312 10305 10298 10291 10284 10277 10270 10262 10253 10245 10237 10230 10221 10213 10205 10198 10189 10181 10173 10167 10161 10155 10148 10140 10132 10125 10119 10114 10107 10101 10095 10089 10083 10077 10072 10068 10063 10057 10053 10050 10046 10040 10036 10032 10029 10026 10022 10018 10012 10007 10002 9998 9993 9990 9988 9987 9986 9985 9985 9985 9984 9983 9980 9980 9979 9978 9979 9980 9981 9980 9981 9986 9991 9994 9997 10001 10005 10009 10012 10015 10018 10021 10025 10029
10305 10298 10290 10282 10275 10268 10261 10254 10245 10235 10227 10219 10211 10202 10193 10185 10177 10170 10162 10154 10147 10142 10135 10129 10122 10114 10107 10100 10094 10088 10082 10076 10070 10064 10058 10053 10048 10043 10038 10033 10030 10026 10021 10016 10012 10009 10008 10005 10000 9995 9990 9986 9981 9977 9974 9972 9969 9968 9968 9968 9967 9967 9966 9964 9963 9962 9962 9964 9965 9965 9965 9967 9972 9978 9980 9982 9986 9991 9995 9998 10000 10004 10008 10012 10016
10288 10280 10271 10263 10256 10249 10241 10233 10224 10216 10208 10200 10192 10183 10175 10166 10158 10152 10145 10137 10129 10122 10115 10108 10101 10095 10087 10080 10074 10068 10063 10057 10050 10045 10039 10034 10029 10025 10020 10015 10011 10007 10003 9998 9993 9990 9990 9988 9983 9978 9974 9970 9966 9962 9959 9957 9954 9952 9951 9950 9950 9949 9949 9948 9947 9947 9947 9949 9950 9950 9951 9953 9958 9963 9966 9968 9972 9976 9981 9984 9987 9991 9995 9999 10003
10270 10261 10252 10244 10236 10229 10220 10212 10204 10197 10190 10183 10175 10166 10157 10149 10140 10133 10127 10119 10110 10102 10095 10088 10081 10075 10068 10061 10055 10049 10044 10038 10032 10026 10021 10016 10011 10007 10003 9998 9993 9989 9985 9980 9975 9972 9971 9970 9966 9962 9958 9955 9951 9948 9945 9942 9939 9937 9936 9934 9933 9933 9932 9932 9932 9932 9933 9934 9936 9937 9938 9941 9945 9949 9951 9954 9958 9963 9967 9972 9975 9979 9983 9986 9991
10251 10243 10235 10227 10219 10211 10202 10194 10187 10180 10173 10165 10157 10148 10139 10131 10121 10112 10106 10100 10093 10084 10076 10069 10063 10057 10051 10044 10037 10032 10026 10020 10014 10009 10004 9998 9993 9989 9985 9980 9976 9972 9968 9962 9958 9955 9953 9952 9949 9945 9942 9939 9935 9933 9931 9928 9926 9923 9922 9920 9919 9918 9918 9918 9918 9918 9919 9921 9923 9924 9925 9929 9932 9935 9937 9941 9946 9951 9955 9959 9962 9966 9970 9975 9980
10235 10227 10220 10212 10204 10194 10185 10177 10169 10162 10154 10145 10136 10128 10121 10113 10105 10096 10088 10082 10075 10067 10059 10053 10047 10041 10034 10027 10021 10015 10009 10003 9996 9991 9986 9981 9976 9970 9967 9963 9959 9955 9951 9946 9942 9938 9935 9934 9932 9930 9926 9923 9921 9918 9916 9914 9912 9910 9908 9907 9906 9905 9904 9904 9905 9905 9907 9908 9910 9911 9914 9917 9919 9922 9925 9929 9935 9939 9943 9946 9950 9954 9960 9965 9969
10219 10211 10202 10194 10185 10176 10167 10159 10151 10144 10135 10126 10118 10110 10102 10095 10088 10081 10073 10064 10056 10049 10042 10035 10029 10023 10016 10010 10003 9997 9991 9985 9979 9973 9968 9963 9958 9953 9949 9946 9942 9939 9935 9931 9927 9923 9920 9918 9916 9914 9911 9908 9906 9905 9903 9901 9899 9897 9896 9895 9894 9893 9892 9892 9893 9894 9895 9897 9898 9900 9902 9905 9907 9910 9913 9918 9924 9928 9931 9934 9939 9944 9949 9953 9958
10202 10193 10184 10175 10166 10157 10149 10142 10135 10127 10120 10111 10102 10093 10085 10077 10069 10062 10054 10045 10037 10029 10022 10016 10010 10005 9999 9993 9986 9980 9974 9968 9962 9957 9952 9946 9941 9937 9933 9930 9927 9924 9920 9917 9913 9908 9905 9903 9900 9898 9896 9893 9892 9891 9890 9889 9887 9885 9884 9883 9881 9881 9880 9881 9882 9883 9884 9885 9887 9889 9891 9894 9896 9899 9903 9908 9912 9916 9920 9923 9927 9933 9938 9942 9946
10185 10177 10168 10159 10150 10141 10133 10126 10119 10111 10103 10095 10087 10078 10069 10060 10052 10044 10036 10027 10018 10011 10004 9998 9992 9987 9981 9976 9970 9964 9957 9951 9946 9941 9936 9931 9926 9921 9918 9915 9912 9909 9906 9903 9899 9895 9891 9889 9887 9884 9881 9880 9878 9878 9878 9878 9875 9873 9872 9871 9870 9869 9869 9870 9871 9872 9873 9875 9877 9879 9881 9883 9886 9889 9893 9896 9900 9904 9908 9912 9917 9922 9927 9931 9936
10169 10161 10152 10144 10135 10126 10118 10111 10103 10094 10086 10078 10070 10061 10052 10044 10036 10028 10019 10011 10002 9995 9988 9981 9975 9970 9964 9959 9954 9948 9942 9936 9930 9926 9921 9916 9912 9908 9904 9901 9897 9894 9891 9889 9886 9883 9879 9876 9874 9872 9869 9868 9866 9866 9867 9866 9863 9861 9860 9859 9859 9859 9859 9860 9861 9862 9864 9865 9867 9869 9871 9874 9877 9879 9883 9886 9890 9893 9897 9901 9906 9911 9916 9921 9926
10153 10146 10137 10129 10120 10111 10104 10096 10088 10079 10069 10060 10052 10044 10036 10028 10020 10012 10004 9996 9987 9980 9974 9967 9960 9954 9949 9944 9938 9933 9927 9921 9916 9911 9906 9902 9898 9894 9890 9887 9884 9880 9877 9874 9872 9870 9867 9864 9862 9860 9858 9857 9855 9855 9856 9855 9852 9850 9849 9848 9848 9849 9849 9850 9851 9853 9854 9856 9857 9859 9862 9864 9867 9870 9874 9877 9879 9882 9886 9891 9896 9901 9906 9912 9916
10137 10129 10121 10113 10105 10096 10088 10080 10071 10062 10052 10043 10035 10028 10020 10013 10005 9997 9988 9980 9972 9964 9958 9952 9945 9939 9935 9930 9925 9919 9913 9907 9902 9897 9892 9887 9883 9879 9876 9873 9870 9867 9863 9861 9858 9856 9854 9853 9851 9849 9848 9846 9845 9846 9846 9844 9841 9840 9839 9838 9838 9839 9839 9841 9842 9843 9845 9847 9848 9850 9852 9855 9858 9861 9864 9867 9870 9873 9876 9881 9887 9892 9897 9901 9906
10124 10114 10105 10096 10088 10079 10070 10062 10054 10045 10037 10028 10020 10012 10005 9997 9990 9982 9973 9965 9957 9949 9942 9936 9929 9923 9919 9914 9910 9904 9898 9893 9888 9883 9878 9874 9869 9866 9863 9860 9858 9854 9851 9848 9846 9844 9842 9841 9840 9838 9837 9836 9836 9836 9836 9833 9831 9830 9829 9828 9828 9829 9830 9831 9833 9834 9836 9838 9840 9842 9843 9845 9848 9851 9854 9857 9860 9864 9868 9872 9878 9883 9888 9892 9897
10109 10100 10089 10080 10071 10064 10057 10049 10041 10032 10023 10015 10007 9999 9991 9983 9975 9968 9960 9952 9944 9937 9930 9923 9915 9909 9903 9899 9895 9890 9884 9879 9875 9870 9866 9862 9857 9854 9851 9847 9845 9842 9839 9837 9834 9832 9831 9830 9829 9828 9827 9826 9826 9826 9825 9823 9821 9820 9819 9818 9819 9821 9822 9822 9824 9825 9827 9830 9831 9833 9835 9837 9839 9841 9845 9848 9851 9855 9859 9864 9868 9874 9878 9883 9888
10092 10084 10077 10068 10060 10053 10047 10040 10031 10022 10012 10003 9995 9986 9979 9970 9962 9954 9947 9939 9931 9925 9918 9911 9903 9897 9890 9885 9881 9876 9871 9866 9862 9858 9854 9850 9847 9843 9839 9836 9833 9830 9827 9826 9824 9822 9821 9819 9818 9817 9817 9815 9815 9815 9814 9812 9811 9811 9810 9809 9810 9813 9813 9813 9815 9817 9818 9821 9823 9824 9826 9828 9829 9832 9836 9839 9842 9847 9851 9856 9860 9865 9869 9873 9878
10077 10071 10064 10057 10049 10041 10034 10028 10020 10010 10001 9993 9984 9974 9966 9957 9949 9941 9933 9925 9918 9911 9905 9899 9892 9885 9879 9873 9868 9864 9860 9854 9849 9846 9843 9839 9836 9832 9828 9825 9822 9819 9816 9814 9813 9812 9810 9809 9808 9807 9806 9805 9805 9805 9803 9802 9802 9802 9801 9800 9801 9805 9806 9805 9806 9808 9810 9812 9814 9816 9818 9819 9821 9824 9828 9831 9835 9839 9844 9848 9852 9855 9859 9864 9869
10066 10059 10052 10043 10036 10028 10020 10013 10005 9996 9987 9979 9970 9961 9952 9943 9935 9927 9919 9911 9903 9897 9891 9886 9879 9872 9867 9862 9856 9852 9848 9843 9838 9835 9831 9828 9824 9821 9817 9814 9812 9809 9805 9803 9802 9801 9799 9799 9798 9797 9795 9795 9795 9794 9793 9792 9792 9793 9793 9792 9794 9797 9798 9797 9798 9799 9801 9803 9805 9807 9809 9811 9814 9817 9820 9824 9828 9832 9836 9840 9843 9846 9850 9856 9862
10053 10045 10037 10028 10020 10012 10003 9995 9987 9979 9970 9962 9953 9944 9936 9928 9921 9913 9904 9896 9889 9882 9877 9872 9866 9860 9855 9850 9845 9841 9836 9832 9828 9824 9820 9817 9814 9809 9806 9803 9801 9799 9795 9793 9792 9790 9789 9788 9788 9787 9785 9785 9785 9784 9783 9783 9783 9784 9785 9785 9786 9788 9790 9791 9791 9791 9793 9795 9797 9799 9801 9804 9806 9809 9813 9816 9821 9825 9829 9831 9834 9837 9842 9848 9854
10039 10031 10022 10013 10004 9995 9986 9978 9971 9963 9955 9947 9939 9929 9921 9914 9907 9899 9891 9883 9876 9869 9864 9858 9853 9848 9843 9838 9834 9829 9825 9821 9818 9813 9809 9806 9803 9799 9795 9792 9791 9789 9786 9784 9782 9780 9778 9778 9778 9777 9775 9775 9775 9774 9774 9774 9775 9776 9776 9777 9778 9780 9782 9784 9784 9784 9785 9787 9789 9790 9793 9796 9799 9802 9806 9810 9814 9818 9820 9823 9826 9829 9834 9842 9848
10026 10017 10008 9998 9989 9979 9969 9961 9954 9948 9941 9934 9925 9916 9908 9901 9893 9886 9878 9870 9862 9856 9850 9845 9839 9834 9830 9825 9821 9817 9813 9810 9806 9802 9798 9794 9792 9788 9784 9782 9780 9778 9776 9774 9773 9770 9768 9768 9768 9767 9766 9765 9765 9765 9765 9765 9767 9768 9768 9768 9770 9772 9774 9777 9777 9776 9777 9779 9782 9783 9785 9789 9792 9795 9799 9803 9807 9810 9813 9815 9818 9822 9829 9836 9841
10010 10001 9993 9985 9976 9966 9956 9948 9941 9934 9928 9921 9913 9904 9896 9889 9881 9873 9865 9857 9849 9843 9837 9832 9826 9821 9816 9811 9807 9804 9801 9797 9794 9791 9787 9783 9780 9777 9774 9772 9770 9767 9765 9765 9763 9761 9759 9759 9758 9757 9757 9756 9756 9757 9757 9757 9758 9760 9760 9760 9762 9764 9766 9768 9770 9770 9770 9771 9775 9777 9778 9781 9784 9788 9792 9796 9799 9802 9804 9807 9810 9816 9823 9828 9832
9999 9990 9981 9973 9964 9954 9944 9936 9930 9923 9916 9909 9902 9893 9885 9877 9870 9862 9853 9845 9838 9831 9825 9820 9815 9809 9804 9799 9795 9791 9788 9785 9783 9779 9776 9772 9768 9765 9763 9762 9760 9757 9755 9755 9754 9752 9750 9750 9749 9748 9748 9748 9748 9748 9749 9749 9750 9752 9752 9753 9754 9757 9759 9760 9762 9763 9763 9764 9767 9770 9771 9774 9778 9782 9785 9789 9792 9794 9796 9799 9804 9810 9816 9820 9824
9988 9979 9971 9963 9953 9944 9934 9924 9917 9910 9903 9896 9889 9882 9873 9865 9858 9851 9843 9835 9827 9821 9815 9809 9804 9799 9793 9788 9784 9780 9777 9774 9772 9769 9766 9762 9758 9754 9752 9751 9750 9748 9746 9745 9745 9743 9742 9741 9741 9740 9740 9740 9740 9741 9741 9742 9743 9744 9745 9745 9746 9749 9751 9753 9754 9756 9757 9758 9760 9763 9765 9768 9772 9776 9779 9782 9784 9786 9788 9792 9797 9802 9807 9812 9817
9977 9968 9960 9951 9941 9932 9923 9913 9904 9896 9889 9881 9874 9868 9861 9854 9847 9840 9833 9826 9819 9811 9805 9800 9795 9789 9784 9779 9774 9770 9767 9765 9763 9760 9757 9753 9748 9745 9743 9742 9741 9739 9737 9737 9736 9735 9734 9733 9733 9732 9732 9733 9733 9733 9734 9735 9736 9736 9737 9738 9739 9742 9744 9745 9747 9748 9750 9751 9753 9756 9759 9763 9766 9770 9772 9774 9775 9776 9779 9784 9789 9794 9800 9805 9810
9966 9958 9949 9939 9930 9920 9911 9902 9892 9883 9876 9868 9861 9854 9849 9843 9837 9830 9823 9816 9809 9802 9796 9790 9785 9780 9775 9770 9765 9761 9757 9755 9753 9751 9749 9745 9740 9736 9734 9733 9732 9731 9729 9729 9728 9727 9726 9725 9725 9725 9725 9725 9726 9726 9727 9728 9728 9729 9730 9731 9732 9735 9737 9738 9739 9741 9742 9744 9746 9750 9754 9758 9761 9763 9764 9765 9766 9768 9772 9778 9783 9789 9794 9800 9805
9955 9947 9939 9930 9920 9911 9902 9893 9884 9875 9867 9859 9851 9843 9837 9832 9826 9820 9813 9805 9798 9791 9786 9780 9775 9770 9765 9760 9756 9752 9748 9745 9743 9742 9740 9736 9732 9729 9727 9725 9723 9722 9722 9721 9720 9719 9718 9718 9718 9717 9718 9718 9719 9719 9719 9720 9721 9721 9722 9724 9726 9728 9729 9731 9732 9734 9735 9737 9740 9744 9747 9751 9754 9755 9756 9758 9760 9762 9766 9772 9779 9785 9790 9795 9800
9943 9935 9927 9919 9910 9901 9892 9883 9875 9867 9859 9851 9843 9834 9827 9822 9816 9810 9803 9796 9787 9780 9775 9770 9765 9760 9755 9751 9747 9743 9740 9736 9733 9732 9731 9728 9723 9720 9720 9718 9714 9714 9714 9713 9712 9711 9711 9710 9710 9710 9710 9711 9711 9712 9712 9713 9714 9714 9716 9717 9719 9721 9722 9724 9726 9727 9729 9731 9733 9737 9740 9744 9746 9748 9749 9752 9754 9757 9761 9766 9774 9780 9784 9788 9792
9933 9924 9916 9908 9899 9891 9882 9873 9865 9858 9850 9842 9833 9824 9817 9811 9806 9800 9794 9788 9779 9771 9765 9759 9754 9750 9745 9741 9737 9734 9731 9728 9724 9721 9721 9721 9715 9710 9711 9711 9708 9705 9705 9705 9704 9703 9703 9703 9703 9703 9703 9703 9704 9705 9705 9706 9707 9708 9709 9710 9712 9714 9716 9718 9719 9720 9722 9724 9727 9730 9734 9737 9739 9741 9743 9746 9748 9751 9755 9761 9767 9773 9777 9780 9784
9922 9913 9905 9896 9887 9879 9871 9862 9854 9847 9839 9831 9822 9814 9807 9801 9796 9790 9785 9779 9772 9764 9756 9750 9745 9741 9736 9731 9727 9724 9721 9719 9716 9712 9710 9711 9709 9703 9701 9702 9701 9698 9697 9696 9695 9695 9695 9695 9695 9696 9696 9696 9697 9698 9698 9699 9700 9701 9702 9704 9705 9707 9709 9710 9712 9713 9715 9717 9720 9723 9727 9729 9732 9734 9737 9740 9743 9746 9750 9755 9761 9767 9771 9774 9776
9912 9904 9895 9886 9877 9868 9859 9851 9843 9836 9829 9821 9813 9805 9798 9792 9786 9781 9775 9770 9764 9757 9750 9743 9737 9732 9728 9723 9718 9715 9712 9709 9708 9705 9701 9700 9701 9698 9694 9693 9692 9691 9689 9688 9687 9687 9687 9687 9688 9688 9689 9689 9689 9690 9691 9692 9693 9695 9696 9697 9698 9700 9702 9704 9705 9707 9709 9711 9714 9717 9721 9724 9726 9729 9732 9735 9738 9742 9746 9750 9755 9761 9764 9766 9767